Back to catalog

FENGYUN 1C DEB

AliveSSO
NORAD 29870·DEBRIS·🇨🇳 China

Launched May 10, 1999 from Taiyuan Satellite Launch Center

Loading…

Next Passes (next 24 hours)

TLE

FreshSource: Space-Track

Epoch: Sep 14, 2026, 09:21 UTC

1 29870U 99025FQ  26257.39010506  .00000061  00000-0  37611-4 0  9996
2 29870  98.4961 225.8453 0121157 101.2772  64.1540 14.29072397 25282

Track FENGYUN 1C DEB in real time with AllMySat

Download on the App Store